CAPE
0 0 0 0 0 0 0 0 0 0 0 0 0 0 0 0 0 0 0 0 0 0 0 0 0 0 0 0 0 0 0 0 0 0 0 0 0 0 0 0 0 0 0 0
0 0 0 0 0 0 0 0 0 0 0 0 0 0 0 0 0 0 0 0 0 0 0 0 0 0 0 0 0 0 0 0 0 0 0 0 0 0 0 0 0 0 0 0
0 0 0 0 0 0 0 0 0 0 0 0 0 0 0 0 0 0 0 0 0 0 0 0 0 0 0 0 0 0 0 0 0 0 0 0 0 0 0 0 0 0 0 0
1 0 0 0 0 0 0 0 0 0 0 0 0 0 0 0 0 0 0 0 0 0 0 0 0 0 0 0 0 0 0 0 0 0 0 0 0 0 0 0 0 0 0 0
0 0 0 0 0 0 0 0 0 0 0 0 0 0 0 0 0 0 0 0 0 0 0 0 0 0 0 0 0 0 0 0 0 0 0 0 0 0 0 0 0 0 0 0
0 0 0 0 0 0 0 0 0 0 0 0 0 0 0 0 0 0 0 0 0 0 0 0 0 0 0 0 0 0 0 0 0 0 0 0 0 0 0 0 0 0 0 0
0 0 0 0 0 0 0 0 0 0 0 0 0 0 0 0 0 0 0 0 0 0 0 0 0 0 0 0 0 0 0 0 0 0 0 0 0 0 0 0 0 0 0 0
0 0 0 0 0 0 0 0 0 0 0 0 0 0 0 0 0 0 0 0 0 0 0 0 0 0 0 0 0 0 0 0 1 0 0 0 0 0 0 0 0 0 0 0
0 0 0 0 0 0 0 0 0 0 0 0 0 0 0 0 0 0 0 0 0 0 0 0 0 0 0 0 0 0 0 0 0 0 0 0 0 0 0 0 0 0 0 0
0 0 0 0 0 0 0 0 0 0 0 0 0 0 0 0 0 0 0 0 0 0 0 0 0 0 0 0 0 0 0 1 0 0 0 0 0 0 0 0 0 0 0 0
0 0 0 0 0 0 0 0 0 0 0 0 0 0 0 0 0 0 0 0 0 0 0 0 0 0 0 0 0 0 0 0 0 0 0 0 0 0 0 0 0 0 0 0
0 0 0 0 0 0 0 0 0 0 0 0 0 0 0 0 0 0 0 0 0 0 0 0 0 0 0 0 0 0 0 0 0 0 0 0 0 0 0 0 0 0 0 0
0 0 0 0 0 0 0 0 0 0 0 0 0 0 0 0 0 0 0 0 0 0 0 0 0 0 0 0 0 0 0 0 0 0 0 0 0 0 0 0 0 0 0 0
0 0 0 0 0 0 0 0 0 0 0 0 0 0 0 0 0 0 0 0 0 0 0 0 0 0 0 0 0 0 0 0 0 0 0 0 0 0 0 0 0 0 0 0
0 0 0 0 0 0 0 0 0 0 0 0 0 0 0 0 0 0 0 0 0 0 0 0 0 0 0 0 0 0 0 0 0 0 0 0 0 0 0 0 0 0 0 0
1 0 0 0 0 0 0 0 0 0 0 0 0 0 0 0 0 0 0 0 0 0 0 0 0 0 0 0 0 0 0 0 0 0 0 0 0 0 0 0 0 0 0 0
1 1 0 0 0 0 0 0 0 0 0 0 0 0 0 0 0 0 0 0 0 0 0 0 0 0 0 0 0 0 0 0 0 0 0 0 0 0 0 0 0 0 0 0
2 2 0 0 0 2 0 0 0 0 0 0 0 0 0 0 0 0 0 0 0 0 0 0 0 0 0 0 0 0 0 0 0 0 0 0 0 0 0 0 0 0 0 0
2 1 2 0 0 0 0 0 0 0 0 0 0 0 0 0 0 0 0 0 0 0 2 0 0 0 0 0 0 0 0 0 0 0 0 0 0 0 0 0 0 0 0 0
1 0 0 0 0 0 0 0 0 1 0 0 0 0 0 0 0 0 0 0 0 0 0 0 0 0 0 0 0 0 0 0 0 0 0 0 0 0 0 0 0 0 0 0
0 0 0 0 2 0 0 0 0 0 0 0 0 0 0 0 0 0 0 0 0 0 0 0 0 0 0 0 0 0 0 0 0 0 0 0 0 0 0 0 0 0 0 0
0 0 0 0 0 0 1 1 0 0 0 0 0 0 0 0 0 0 0 0 0 0 0 0 0 0 0 0 0 0 0 0 0 0 0 0 0 0 0 0 0 0 0 0
0 0 0 0 0 0 0 0 0 0 0 0 0 0 0 0 0 0 0 0 0 0 0 0 0 0 0 0 0 0 0 0 0 0 0 0 0 0 0 0 0 0 0 0
0 0 0 0 0 0 0 0 0 0 0 0 0 0 0 0 0 0 0 0 0 0 0 0 0 0 0 0 0 0 0 0 0 0 0 0 0 0 0 0 0 0 0 0
0 0 0 0 0 0 0 0 0 0 0 0 0 0 0 0 0 0 0 0 0 0 0 0 0 0 0 0 0 0 0 0 0 0 0 0 0 0 0 0 0 0 0 0
9 0 0 0 0 0 0 0 0 0 0 0 0 0 0 0 0 0 0 0 0 0 0 0 0 0 0 0 0 0 0 0 0 0 0 0 0 0 0 0 0 0 0 0
0 0 0 0 0 0 0 0 0 0 0 0 0 0 0 0 0 0 0 0 0 0 0 0 0 0 0 0 0 0 0 0 0 0 0 0 0 0 0 0 0 0 0 0
CIN
0 0 0 0 0 0 0 0 0 0 0 0 0 0 0 0 0 0 0 0 0 0 0 0 0 0 0 0 0 0 0 0 0 0 0 0 0 0 0 0 0 -1 0 0
0 0 0 0 0 0 0 0 0 0 0 0 0 0 0 0 0 0 0 0 0 0 0 0 0 0 0 0 0 0 0 0 0 0 0 0 0 0 0 0 0 0 0 0
0 0 0 0 0 0 0 0 0 0 0 0 0 0 0 0 0 0 0 0 0 0 0 0 0 0 0 0 0 0 0 0 0 0 0 0 0 0 0 0 0 0 0 0
0 0 0 0 0 0 0 0 0 0 0 0 0 0 0 0 0 0 0 0 0 0 0 0 0 0 0 0 0 0 0 0 0 0 0 0 0 0 0 0 0 0 0 0
0 0 0 0 0 0 0 0 0 0 0 0 0 0 0 0 0 0 0 0 0 0 0 0 0 0 0 0 0 0 0 0 0 0 0 0 0 0 0 0 0 0 0 0
0 0 0 0 0 0 0 0 0 0 0 0 0 0 0 0 0 0 0 0 0 0 0 0 0 0 0 0 0 0 0 0 0 0 0 0 0 0 0 0 0 0 0 0
0 0 0 0 0 0 0 0 0 0 0 0 0 0 0 0 0 0 0 0 0 0 0 0 0 0 0 0 0 0 0 0 0 0 0 0 0 0 0 0 0 0 0 0
0 0 0 0 0 0 0 0 0 0 0 0 0 0 0 0 0 0 0 0 0 0 0 0 0 0 0 0 0 0 0 0 0 0 0 0 0 0 0 0 0 0 0 0
0 0 0 0 0 0 0 0 0 0 0 0 0 0 0 0 0 0 0 0 0 0 0 0 0 0 0 0 0 0 0 0 0 0 0 0 0 0 0 0 0 0 0 0
0 0 0 0 0 0 0 0 0 0 0 0 0 0 0 0 0 0 0 0 0 0 0 0 0 0 0 0 0 0 0 0 0 0 0 0 0 0 0 0 0 0 0 0
0 0 0 0 0 0 0 0 0 0 0 0 0 0 0 0 0 0 0 0 0 0 0 0 0 0 0 0 0 0 0 0 0 0 0 0 0 0 0 0 0 0 0 0
0 0 0 0 0 0 0 0 0 0 0 0 0 0 0 0 0 0 0 0 0 0 0 0 0 0 0 0 0 0 0 0 0 0 0 0 0 0 0 0 0 0 0 0
0 0 0 0 0 0 0 0 0 0 0 0 0 0 0 0 0 0 0 0 0 0 0 0 0 0 0 0 0 0 0 0 0 0 0 0 0 0 0 0 0 0 0 0
0 0 0 0 0 0 0 0 0 0 0 0 0 0 0 0 0 0 0 0 0 0 0 0 0 0 0 0 0 0 0 0 0 0 0 0 0 0 0 0 0 0 0 0
0 0 0 0 0 0 0 0 0 0 0 0 0 0 0 0 0 0 0 0 0 0 0 0 0 0 0 0 0 0 0 0 0 0 0 0 0 0 0 0 0 0 0 0
0 -1 0 0 0 0 0 0 0 0 0 0 0 0 0 0 0 0 0 0 0 0 0 0 0 0 0 0 0 0 0 0 0 0 0 0 0 0 0 0 0 0 0 0
0 0 0 0 0 0 0 0 0 0 0 0 0 0 0 0 0 0 0 0 0 0 0 0 0 0 0 0 0 0 0 0 0 0 0 0 0 0 0 0 0 0 0 0
0 0 0 0 0 -1 0 0 0 0 0 0 0 0 0 0 0 0 0 0 0 0 0 0 0 0 0 0 0 0 0 0 0 0 0 0 0 0 0 0 0 0 0 0
0 0 0 0 0 0 0 0 0 0 0 0 0 0 0 0 0 0 0 0 0 0 0 0 0 0 0 0 0 0 0 0 0 0 0 0 0 0 0 0 0 0 0 0
0 0 0 0 0 0 0 0 0 0 0 0 0 0 0 0 0 0 0 0 0 0 0 0 0 0 0 0 0 0 0 0 0 0 0 0 0 0 0 0 0 0 0 0
0 0 0 0 0 0 0 0 0 0 0 0 0 0 0 0 0 0 0 0 0 0 0 0 0 0 0 0 0 0 0 0 0 0 0 0 0 0 0 0 0 0 0 0
0 0 0 0 0 0 0 0 0 0 0 0 0 0 0 0 0 0 0 0 0 0 0 0 0 0 0 0 0 0 0 0 0 0 0 0 0 0 0 0 0 0 0 0
0 0 0 0 0 0 0 0 0 0 0 0 0 0 0 0 0 0 0 0 0 0 0 0 0 0 0 0 0 0 0 0 0 0 0 0 0 0 0 0 0 0 0 0
-14 0 0 0 0 0 0 0 0 0 0 0 0 0 0 0 0 0 0 0 0 0 0 0 0 0 0 0 0 0 0 0 0 0 0 0 0 0 0 0 0 0 0 0
0 0 0 0 0 0 0 0 0 0 0 0 0 0 0 0 0 0 0 0 0 0 0 0 0 0 0 0 0 0 0 0 0 0 0 0 0 0 0 0 0 0 0 0
-6 0 0 0 0 0 0 0 0 0 0 0 0 0 0 0 0 0 0 0 0 0 0 0 0 0 0 0 0 0 0 0 0 0 0 0 0 0 0 0 0 0 0 0
0 0 0 0 0 0 0 0 0 0 0 0 0 0 0 0 0 0 0 0 0 0 0 0 0 0 0 0 0 0 0 0 0 0 0 0 0 0 0 0 0 0 0 0
Wind_Speed
20 14 13 12 8 13 16 17 28 13 16 24 23 29 27 25 25 21 22 21 21 21 21 19 19 18 16 18 17 15 12 14 13 13 15 19 20 23 23 22 23 25 23 10
20 16 10 9 7 10 15 22 22 14 16 29 29 25 25 21 22 22 21 21 20 20 20 20 18 16 15 17 17 15 15 12 10 12 11 11 6 10 22 23 24 3 8 13
19 17 12 8 6 8 15 19 22 20 21 22 26 27 24 24 19 20 19 20 19 19 18 16 16 15 15 16 15 14 13 11 10 8 7 7 8 9 9 5 7 8 9 12
25 15 11 10 13 5 14 16 20 18 21 21 21 20 21 22 21 19 18 18 17 17 17 15 14 13 12 12 11 11 10 6 6 8 11 12 15 15 13 13 14 12 11 8
31 23 11 11 14 9 17 16 18 18 19 18 18 17 18 18 17 17 16 15 15 14 13 12 11 11 10 8 10 9 7 4 4 5 6 5 6 7 8 10 14 16 18 20
35 34 30 25 23 18 19 15 16 15 16 16 16 16 16 16 15 15 14 13 12 11 10 9 8 7 6 5 7 6 7 8 10 6 9 7 2 6 5 6 4 3 6 7
35 37 36 35 33 28 18 17 12 11 12 13 13 14 13 13 13 12 11 12 10 11 8 5 4 3 5 5 7 4 3 3 11 9 13 10 17 18 14 8 5 3 1 3
33 35 34 33 31 29 21 17 14 11 9 10 10 11 11 10 10 9 9 8 8 8 6 4 3 4 6 7 6 6 5 3 4 5 5 7 16 16 20 20 20 15 9 11
29 32 33 32 30 29 21 19 16 13 9 10 10 10 10 8 8 8 9 8 8 7 6 5 5 3 5 7 8 11 9 6 5 9 10 9 8 11 18 19 15 17 18 21
24 27 30 31 30 28 23 18 18 14 9 11 11 8 7 8 8 6 6 5 6 6 5 4 4 5 7 6 7 10 11 8 2 2 7 6 4 8 10 6 8 25 23 24
20 24 25 28 28 27 25 20 19 17 10 4 7 8 7 6 5 5 9 8 7 8 6 6 7 8 8 7 7 9 8 10 9 10 9 12 12 13 9 10 7 14 24 26
18 21 24 24 26 26 25 21 20 19 12 8 13 7 5 7 9 7 6 6 9 7 8 7 8 7 9 7 8 7 7 5 9 6 6 8 6 4 6 7 7 4 8 10
18 18 21 22 23 23 22 22 22 21 19 17 15 12 13 10 6 11 6 8 7 7 10 9 8 4 9 10 6 7 6 3 5 8 4 6 6 4 5 6 5 5 4 4
17 18 19 20 21 22 20 21 19 21 20 20 15 16 16 18 14 10 11 13 13 13 12 9 8 9 8 11 10 7 7 8 6 7 10 9 8 4 4 8 7 7 6 6
20 18 18 20 21 21 20 21 19 16 17 19 20 24 20 18 16 14 12 11 12 12 12 10 11 13 13 14 16 11 5 4 4 9 7 6 7 7 12 11 10 8 7 7
22 19 19 20 20 21 24 24 20 14 15 22 25 21 22 20 15 13 13 13 14 14 13 13 14 14 12 16 16 13 10 5 6 7 8 7 7 10 11 12 13 15 15 9
25 20 19 20 20 20 21 23 23 14 17 23 26 21 17 15 16 16 15 14 14 13 16 15 16 15 12 17 17 14 11 7 7 8 11 9 9 12 13 14 15 16 13 11
28 21 19 19 21 23 27 24 17 15 22 22 22 23 21 14 18 18 16 17 17 16 17 19 18 16 14 18 13 11 10 10 10 9 9 10 17 16 15 18 19 15 11 11
31 20 19 23 24 26 26 21 18 20 21 24 21 24 29 15 18 18 18 17 22 20 21 19 16 15 15 10 13 9 9 10 13 15 13 15 16 18 19 18 15 13 13 11
18 21 26 30 25 19 20 26 27 24 23 24 29 23 25 18 19 21 21 19 22 25 22 18 20 21 17 16 15 12 12 9 11 14 16 18 19 20 19 18 16 14 12 10
25 29 31 25 18 24 28 29 26 24 28 25 26 20 23 18 23 21 18 23 23 29 26 23 27 28 21 18 13 9 10 9 10 12 16 17 18 18 15 18 17 13 11 9
24 23 22 23 28 30 30 30 27 28 31 26 26 24 19 20 19 22 22 25 24 28 22 26 31 27 19 19 13 10 6 5 9 11 14 15 16 15 15 16 16 12 11 11
22 24 26 26 26 35 36 39 34 31 28 25 23 25 22 23 21 24 25 27 28 23 27 31 29 27 25 18 12 10 9 10 12 13 13 14 14 15 15 15 14 11 11 11
26 28 36 33 33 37 37 38 36 32 29 27 26 27 27 24 25 26 29 26 24 30 34 37 32 27 23 15 12 13 14 13 14 13 13 13 15 15 16 15 14 11 11 10
29 28 37 40 39 37 35 30 28 25 21 20 23 26 28 28 28 24 26 28 32 31 32 29 28 27 23 17 15 14 15 16 16 16 15 14 14 15 16 15 13 12 11 10
31 31 38 37 39 39 35 35 35 29 26 26 28 31 33 34 30 32 35 37 42 37 29 29 30 30 27 23 18 17 17 18 18 17 16 15 14 14 16 16 14 12 11 10
31 40 40 43 44 43 39 37 36 28 29 36 34 38 40 31 35 38 35 43 40 37 36 32 31 33 32 26 22 20 20 19 18 18 17 17 16 17 17 17 15 13 12 11
Wind_Direction
54 50 45 50 63 95 110 117 99 118 132 116 119 115 125 134 135 146 144 145 145 143 146 144 147 148 156 147 150 161 214 167 161 155 343 301 304 275 260 264 282 285 264 232
53 52 38 28 50 93 118 102 106 130 136 106 111 122 125 134 136 141 142 143 145 145 141 138 145 149 148 134 143 140 130 146 141 137 88 337 122 1 283 307 309 11 9 4
50 50 39 1 340 95 112 107 103 110 114 122 114 115 121 125 143 140 145 146 147 144 139 148 141 143 146 134 141 127 126 137 139 141 175 151 190 192 184 179 199 218 223 243
47 46 34 1 325 120 118 113 104 115 108 111 118 121 123 122 125 139 147 139 144 139 131 136 139 145 144 144 139 131 134 138 159 213 236 238 240 232 214 204 212 214 220 216
36 45 35 343 334 86 95 109 108 118 116 120 118 124 125 127 130 134 135 136 137 143 136 143 139 142 141 131 116 118 113 101 71 259 254 224 232 207 197 212 223 228 233 240
21 25 33 334 335 71 78 103 106 116 116 112 113 119 122 122 129 132 138 135 134 141 148 165 169 157 158 101 76 88 59 46 34 26 31 280 148 71 79 68 62 192 212 216
12 4 4 3 1 35 80 79 110 127 126 129 128 123 124 128 123 122 128 122 117 112 122 170 159 176 204 200 199 170 151 68 20 1 344 37 14 5 15 18 11 31 321 347
9 2 353 353 1 9 54 69 88 114 126 135 143 153 158 149 148 159 159 140 111 76 88 133 140 109 101 92 107 153 173 112 48 40 6 302 7 7 356 357 352 5 13 2
8 6 358 347 348 357 32 46 65 78 106 117 123 120 143 149 155 161 174 147 60 119 136 108 87 93 76 85 75 69 93 135 83 47 31 38 47 19 349 346 356 358 356 349
12 8 360 354 348 350 9 24 29 53 82 83 96 122 110 102 102 106 129 115 120 117 117 90 72 70 76 73 67 63 59 60 55 40 28 28 31 64 71 37 18 334 335 335
8 6 5 354 352 348 353 1 4 18 51 88 75 73 74 68 94 89 60 56 77 84 93 79 64 58 60 56 57 45 42 44 41 50 40 33 77 62 48 30 354 348 332 329
1 3 358 358 352 350 348 0 359 355 17 23 6 24 52 47 27 28 49 52 45 66 61 60 55 45 33 28 15 45 36 68 38 60 41 45 46 353 7 4 354 315 285 309
349 356 355 357 354 351 355 353 348 351 353 356 7 14 358 357 358 354 9 9 8 14 8 15 19 9 22 10 5 11 16 15 353 2 8 259 268 304 300 292 299 305 310 314
338 344 349 348 350 348 353 351 357 350 347 346 6 2 354 346 347 340 333 337 354 355 356 353 352 350 10 356 347 325 339 8 348 300 277 278 272 292 41 17 5 344 335 328
326 331 337 338 340 344 346 341 342 347 348 341 339 331 337 336 336 336 334 329 331 337 341 341 336 342 341 336 334 282 288 308 321 334 347 344 347 11 5 359 349 348 339 325
316 319 323 328 331 338 336 333 344 351 348 340 333 339 332 336 341 340 331 327 327 326 332 332 334 333 341 342 340 334 334 293 259 303 338 327 329 346 346 346 357 1 1 6
309 310 312 317 321 326 327 327 334 348 342 332 332 338 347 343 338 339 337 332 331 326 324 321 319 329 329 325 305 329 333 310 310 316 331 319 329 340 356 350 345 345 352 4
303 303 304 310 313 313 312 315 315 328 326 324 326 329 333 339 328 325 332 330 327 325 321 324 321 330 324 321 296 318 324 327 325 320 323 319 337 341 339 340 343 347 352 0
299 295 300 304 303 306 311 321 319 309 307 312 312 315 319 339 331 331 330 327 319 323 317 317 322 319 314 295 323 324 338 346 349 352 347 341 338 338 341 345 351 356 357 5
293 292 292 292 297 310 313 307 305 302 299 298 299 306 305 314 318 318 323 325 320 316 319 327 316 307 287 283 295 299 322 328 339 342 342 341 341 342 347 351 353 355 0 12
288 284 283 294 300 299 297 297 295 298 299 301 303 294 296 305 305 307 315 316 319 313 317 316 316 319 326 328 315 289 271 292 316 328 334 337 338 339 343 346 348 352 357 2
286 285 292 291 286 285 285 285 290 289 294 299 302 302 297 303 305 301 306 306 311 307 319 315 315 329 328 329 338 347 347 333 331 334 335 339 340 341 340 341 344 348 351 354
288 285 281 283 282 274 276 276 281 286 294 296 299 298 300 301 297 296 296 294 296 310 307 306 317 324 326 327 331 340 346 342 338 337 339 341 341 340 339 340 343 346 347 347
282 279 271 270 274 276 273 275 282 285 290 291 291 292 294 296 291 291 290 292 297 297 300 305 315 319 319 319 319 324 326 330 334 336 337 337 336 336 336 337 340 342 341 343
275 278 275 269 270 275 281 281 285 290 293 291 292 294 291 291 288 288 287 289 290 295 302 312 319 322 318 312 310 312 319 324 328 332 333 333 333 333 333 334 335 336 339 338
271 271 274 278 277 275 276 277 278 279 279 282 289 288 287 279 283 278 279 284 287 295 303 308 313 314 315 309 305 306 311 318 323 325 327 329 330 330 332 333 330 329 328 328
269 268 266 270 277 278 276 275 276 274 271 276 280 275 276 285 281 280 282 284 289 294 298 305 307 308 309 304 299 301 303 309 314 317 318 320 324 326 327 328 325 323 321 321